Location: *
(47.2969°N, 10.2930°E)
Time: 03:27:34
(UTC+00:00)

SJ-6B - Pass Details

Date: 09 April 2020
Orbit: 509 x 582 km, 97.6° (Epoch: 04 June)

Event Time Altitude Azimuth Distance (km) Brightness Sun altitude
Exits shadow 18:39:49 - 155° (SSE) 2,790 6.0 -7.3°
Rises 18:39:50 0° 155° (SSE) 2,785 6.0 -7.3°
Reaches altitude 10° 18:42:00 10° 151° (SSE) 1,894 5.1 -7.6°
Maximum altitude 18:46:03 58° 73° (ENE) 687 3.1 -8.3°
Drops below altitude 10° 18:50:07 10° 355° (N) 1,909 6.0 -8.9°
Sets 18:52:18 0° 351° (N) 2,809 6.9 -9.3°
